Regional Weather Roundup
Issued by NWS

Home | Current Version | Previous Version | Text Only | Print | Product List | Glossary On
Versions: 1 2 3 4 5 6 7 8 9 10 11 12 13 14 15 16 17 18 19 20 21 22 23 24 25 26 27
000
ASPQ40 PGUM 190712
RWRPQ
WEATHER ROUNDUP FOR THE MARIANAS AND MICRONESIA
NATIONAL WEATHER SERVICE TIYAN GU
500 PM CHST THU OCT 19 2017

GUZ001>004-190800-
MARIANA ISLANDS-

CITY           SKY/WX    TMP DP  RH WIND       PRES   REMARKS
GUAM AIRPORT   SUNNY     82  75  78 NW13      29.77R
ANDERSEN AFB   MOSUNNY   84  73  70 NW14      29.78R HX  91
ROTA AIRPORT   PTSUNNY   81  73  78 NW13      29.76S
TINIAN AP      PTSUNNY   84  77  79 NW9       29.74R HX  94
SAIPAN AP      PTSUNNY   84  79  84 N12       29.75R HX  96

$$

PMZ161-190800-
REPUBLIC OF PALAU-

CITY           SKY/WX    TMP DP  RH WIND       PRES   REMARKS
KOROR AP       CLOUDY    86  79  79 S12       29.70R HX  99
KOROR WSO      CLOUDY    88  79  74 S17       29.70R HX 102

$$

PMZ171>174-190800-
FEDERATED STATES OF MICRONESIA-

CITY           SKY/WX    TMP DP  RH WIND       PRES   REMARKS
YAP AIRPORT    CLOUDY    88  81  79 S9        29.71S HX 105
CHUUK AP       CLOUDY    84  81  89 NE7       29.73S HX  98
POHNPEI AP     NOT AVBL
POHNPEI WSO    CLOUDY    82  77  83 W3        29.78R HX  91
KOSRAE AP      NOT AVBL

$$

PMZ181-190800-
REPUBLIC OF THE MARSHALL ISLANDS-

CITY           SKY/WX    TMP DP  RH WIND       PRES   REMARKS
KWAJALEIN AP   CLEAR     84  75  74 NE7       29.75R HX  92
MAJURO AP      NOT AVBL
MAJURO WSO     MOCLDY    82  77  83 N6        29.72R HX  91

$$





USA.gov is the U.S. government's official web portal to all federal, state and local government web resources and services.